Thunder Bay, Ontario

10:03 AM EDT on September 27, 2016 (GMT -0400)
Thunder Bay

Weather History for CYQT - November, 2012

Change the Weather History Date:

Sunday, November 11, 2012

  Actual Average Record
Temperature  
Mean Temperature 42 °F -  
Max Temperature 53 °F 36 °F 53 °F (2012)
Min Temperature 32 °F 21 °F 12 °F (1996)
Degree Days  
Heating Degree Days 22    
Moisture  
Dew Point 43 °F    
Average Humidity 95    
Maximum Humidity 100    
Minimum Humidity 81    
Precipitation  
Precipitation 0.31 in - - ()
Sea Level Pressure  
Sea Level Pressure 29.59 in    
Wind  
Wind Speed 12 mph ()    
Max Wind Speed 24 mph    
Max Gust Speed 25 mph    
Visibility 7.6 miles    
Events Rain , Snow , Thunderstorm    
Averages and records for this station are not official NWS values.
T = Trace of Precipitation, MM = Missing Value Source: Averaged Metar Reports

Daily Weather History Graph

Daily Weather History Graph

Search for Another Location

Airport or City:

Trip Planner

Search our weather history database for the weather conditions in past years. The results will help you decide how hot, cold, wet, or windy it might be!

Date:

Astronomy

Nov. 11, 2012 Rise Set
Actual Time 7:59 AM EST 5:22 PM EST
Civil Twilight 7:25 AM EST 5:56 PM EST
Nautical Twilight 6:47 AM EST 6:34 PM EST
Astronomical Twilight 6:11 AM EST 7:10 PM EST
Moon 5:03 AM EST (11/11) 3:54 PM EST (11/11)
Length of Visible Light 10h 30m
Length of Day
9h 23m
Waning Crescent, 7% of the Moon is Illuminated
Nov 11
Waning Crescent
Nov 13
New
Nov 20
First Quarter
Nov 28
Full
Dec 6
Last Quarter

Hourly Weather History & Observations

Time (EST) Temp. Windchill Dew Point Humidity Pressure Visibility Wind Dir Wind Speed Gust Speed Precip Events Conditions
12:00 AM 42.8 °F 33.3 °F 41.0 °F 93% 29.74 in 3.0 mi East 24.2 mph - N/A Rain Light Rain
1:00 AM 43 °F - 42 °F 96% 29.70 in 7 mi East 21.9 mph - - Rain Light Rain
1:00 AM 42.8 °F 33.5 °F 42.8 °F 100% 29.70 in 3.0 mi East 23.0 mph - N/A Rain Light Rain
1:38 AM 42.8 °F 33.8 °F 42.8 °F 100% 29.67 in 2.0 mi East 21.9 mph - N/A Rain , Thunderstorm Light Thunderstorms and Rain
2:00 AM 42.8 °F 35.4 °F 42.8 °F 100% 29.65 in 2.0 mi ENE 15.0 mph 25.3 mph N/A Rain , Thunderstorm Light Thunderstorms and Rain
3:00 AM 44.6 °F 37.2 °F 42.8 °F 93% 29.62 in 2.0 mi East 17.3 mph - N/A Rain , Thunderstorm Thunderstorms and Rain
3:19 AM 44.6 °F 36.9 °F 42.8 °F 93% 29.61 in 3.0 mi East 18.4 mph 24.2 mph N/A Rain Light Rain
4:00 AM 44.6 °F 37.2 °F 44.6 °F 100% 29.59 in 3.0 mi ENE 17.3 mph 24.2 mph N/A Rain Light Rain
5:00 AM 44.6 °F 38.1 °F 44.6 °F 100% 29.55 in 3.0 mi ENE 13.8 mph - N/A Rain Light Rain
5:20 AM 44.6 °F 37.8 °F 44.6 °F 100% 29.53 in 2.0 mi ENE 15.0 mph - N/A Rain Light Rain
6:00 AM 44.6 °F 39.7 °F 44.6 °F 100% 29.56 in 2.0 mi NE 9.2 mph - N/A Rain Light Rain
6:15 AM 46.4 °F 42.4 °F 44.6 °F 93% 29.56 in 2.0 mi ENE 8.1 mph - N/A   Overcast
7:00 AM 45 °F - 45 °F 100%  in 1 mi NE 5.8 mph - -   Mist
7:00 AM 44.6 °F 40.7 °F 44.6 °F 100% 29.53 in 2.0 mi NE 6.9 mph - N/A   Overcast
7:52 AM 46.4 °F 43.5 °F 44.6 °F 93% 29.53 in 2.0 mi NE 5.8 mph - N/A   Overcast
9:00 AM 46.4 °F - 46.4 °F 100% 29.55 in 5.0 mi NNE 2.3 mph - N/A   Overcast
10:00 AM 50.0 °F - 50.0 °F 100% 29.55 in 8.0 mi Calm Calm - N/A   Overcast
11:00 AM 50.0 °F - 50.0 °F 100% 29.55 in 7.0 mi ENE 4.6 mph - N/A   Overcast
11:52 AM 51.8 °F - 50.0 °F 94% 29.57 in 4.0 mi Calm Calm - N/A Rain Light Rain
12:34 PM 53.6 °F - 51.8 °F 94% 29.56 in 6.0 mi SSW 5.8 mph - N/A Rain Light Rain
1:00 PM 52 °F - 51 °F 95% 29.55 in 6 mi WNW 3.5 mph - - Rain Light Rain
1:00 PM 51.8 °F - 50.0 °F 94% 29.54 in 6.0 mi NW 4.6 mph - N/A   Overcast
1:34 PM 51.8 °F - 50.0 °F 94% 29.55 in 20.0 mi West 6.9 mph - N/A   Overcast
2:00 PM 51.8 °F - 50.0 °F 94% 29.57 in 20.0 mi SW 5.8 mph - N/A   Overcast
2:25 PM 51.8 °F - 50.0 °F 94% 29.56 in 10.0 mi SSW 4.6 mph - N/A Rain Light Rain
3:00 PM 50.0 °F - 48.2 °F 94% 29.56 in 10.0 mi WSW 5.8 mph - N/A Rain Light Rain
4:00 PM 46.4 °F 41.9 °F 44.6 °F 93% 29.56 in 10.0 mi West 9.2 mph - N/A Rain Light Rain
5:00 PM 44.6 °F 38.1 °F 41.0 °F 87% 29.58 in 10.0 mi WNW 13.8 mph - N/A Rain Light Rain
5:40 PM 41.0 °F 35.2 °F 39.2 °F 93% 29.58 in 15.0 mi WNW 9.2 mph - N/A   Overcast
6:00 PM 39.2 °F 33.0 °F 37.4 °F 93% 29.60 in 15.0 mi West 9.2 mph - N/A   Overcast
7:00 PM 38 °F - 36 °F 89% 29.60 in 10 mi West 6.9 mph - -   Clear
7:00 PM 37.4 °F 32.1 °F 35.6 °F 93% 29.60 in 15.0 mi WNW 6.9 mph - N/A   Overcast
8:00 PM 37.4 °F 30.8 °F 35.6 °F 93% 29.61 in 15.0 mi West 9.2 mph - N/A   Overcast
9:00 PM 35.6 °F 28.6 °F 33.8 °F 93% 29.64 in 15.0 mi West 9.2 mph - N/A   Overcast
10:39 PM 33.8 °F 24.8 °F 28.4 °F 81% 29.65 in 15.0 mi WNW 12.7 mph 21.9 mph N/A   Overcast
11:00 PM 32.0 °F 23.6 °F 28.4 °F 87% 29.67 in 15.0 mi WNW 10.4 mph 19.6 mph N/A   Overcast
11:05 PM 32.0 °F 24.2 °F 28.4 °F 87% 29.68 in 6.0 mi WNW 9.2 mph 17.3 mph N/A Snow Light Snow